User: anonymous   Login
Location: Laguna de la Cañada del Gallo
(40.3974°N, 5.2096°W)
Time: 06:49:17
(UTC+00:00)
Language:

CARTOSAT-1 - Orbit

View from above orbital plane
View from above orbital plane
View from above satellite
View from above satellite

Ground track
Ground track

The orbit data is extracted from the following two-line orbital elements,

1 28649U 05017A   24164.70408309  .00002013  00000-0  23060-3 0  9990
2 28649  97.6135 208.3217 0001556  49.9136 310.2217 14.87000411 34496
Epoch (UTC): 12 June 2024 16:53:52
Eccentricity: 0.0001556
inclination: 97.6135°
perigee height: 606 km
apogee height: 608 km
right ascension of ascending node: 208.3217°
argument of perigee: 49.9136°
revolutions per day: 14.87000411
mean anomaly at epoch: 310.2217°
orbit number at epoch: 3449

The dashed part of the orbit path shows where the satellite is in the earth's shadow,  

DLR